Location: Unspecified
(43.4680°N, 87.1740°E)
Time: 20:45:49
(UTC+00:00)

Cosmos 1707 - Pass Details

Date: 17 April 2021
Orbit: 514 x 530 km, 82.5° (Epoch: 12 May)

Event Time Altitude Azimuth Distance (km) Brightness Sun altitude
Rises 22:48:45 0° 185° (S) 2,648 6.0 -6.9°
Reaches altitude 10° 22:50:52 10° 184° (S) 1,762 5.1 -6.6°
Maximum altitude 22:54:44 83° 98° (E) 534 2.8 -5.9°
Drops below altitude 10° 22:58:38 10° 10° (N) 1,767 5.8 -5.3°
Sets 23:00:46 0° 10° (N) 2,658 6.8 -4.9°
